Weather History for Shreveport Downtown, LA

Change the Weather History Date:

Tuesday, April 1, 2014

  Actual Average (KSHV) Record (KSHV)
Temperature  
Mean Temperature 67 °F 62 °F  
Max Temperature 75 °F 74 °F 88 °F (1882)
Min Temperature 59 °F 50 °F 35 °F (1987)
Degree Days  
Heating Degree Days 0 5  
Month to date heating degree days 5  
Since 1 July heating degree days 2138  
Cooling Degree Days 2 2  
Month to date cooling degree days 2  
Year to date cooling degree days 43  
Growing Degree Days 17 (Base 50)    
Moisture  
Dew Point 60 °F    
Average Humidity 80    
Maximum Humidity 94    
Minimum Humidity 68    
Precipitation  
Precipitation 0.00 in 0.14 in 2.29 in (1916)
Month to date precipitation 0.14  
Year to date precipitation 13.23  
Snow  
Snow 0.00 in - - ()
Month to date snowfall  
Since 1 July snowfall  
Snow Depth -    
Sea Level Pressure  
Sea Level Pressure 30.00 in    
Wind  
Wind Speed 8 mph (SSE)    
Max Wind Speed 13 mph    
Max Gust Speed -    
Visibility 10 miles    
Events      
T = Trace of Precipitation, MM = Missing Value Source: NWS Daily Summary

Daily Weather History Graph

Daily Weather History Graph

Search for Another Location

Airport:

Trip Planner

Search our weather history database for the weather conditions in past years. The results will help you decide how hot, cold, wet, or windy it might be!

Date:

Astronomy

Apr. 01, 2014 Rise Set
Actual Time 7:03 AM CDT 7:35 PM CDT
Civil Twilight 6:38 AM CDT 7:59 PM CDT
Nautical Twilight 6:09 AM CDT 8:28 PM CDT
Astronomical Twilight 5:39 AM CDT 8:58 PM CDT
Moon 8:12 AM CDT (4/1) 9:50 PM CDT (4/1)
Length of Visible Light 13h 21m
Length of Day
12h 31m
Waxing Crescent, 5% of the Moon is Illuminated
Apr 1
Waxing Crescent
Apr 7
First Quarter
Apr 15
Full
Apr 22
Last Quarter
Apr 29
New

Hourly Weather History & Observations

Time (CDT) Temp. Dew Point Humidity Pressure Visibility Wind Dir Wind Speed Gust Speed Precip Events Conditions
12:53 AM 63.0 °F 55.9 °F 78% 29.99 in 10.0 mi South 9.2 mph - N/A   Clear
1:53 AM 62.1 °F 55.9 °F 80% 29.99 in 10.0 mi SSE 5.8 mph - N/A   Clear
2:53 AM 60.1 °F 55.9 °F 86% 30.00 in 10.0 mi SSE 4.6 mph - N/A   Clear
3:26 AM 59.0 °F 55.4 °F 88% 30.00 in 10.0 mi SSE 5.8 mph - N/A   Overcast
3:53 AM 59.0 °F 55.9 °F 90% 29.99 in 10.0 mi SSE 5.8 mph - N/A   Overcast
4:33 AM 62.6 °F 57.2 °F 82% 29.99 in 10.0 mi South 8.1 mph - N/A   Overcast
4:53 AM 62.1 °F 57.9 °F 86% 29.99 in 10.0 mi SSW 12.7 mph - N/A   Overcast
5:53 AM 62.1 °F 59.0 °F 90% 30.01 in 10.0 mi South 4.6 mph - N/A   Overcast
6:53 AM 63.0 °F 59.0 °F 87% 30.01 in 10.0 mi South 5.8 mph - N/A   Overcast
7:53 AM 62.1 °F 59.0 °F 90% 30.04 in 7.0 mi SE 4.6 mph - N/A   Overcast
8:21 AM 62.6 °F 60.8 °F 94% 30.05 in 7.0 mi SE 3.5 mph - N/A   Overcast
8:35 AM 62.6 °F 60.8 °F 94% 30.05 in 8.0 mi SSE 3.5 mph - N/A   Overcast
8:53 AM 63.0 °F 60.1 °F 90% 30.06 in 8.0 mi SE 4.6 mph - N/A   Overcast
9:53 AM 64.0 °F 60.1 °F 87% 30.06 in 10.0 mi SSE 5.8 mph - N/A   Overcast
10:32 AM 66.2 °F 60.8 °F 83% 30.06 in 10.0 mi South 6.9 mph - N/A   Overcast
10:53 AM 68.0 °F 61.0 °F 78% 30.06 in 10.0 mi South 5.8 mph - N/A   Overcast
11:37 AM 69.8 °F 60.8 °F 73% 30.05 in 10.0 mi South 8.1 mph - N/A   Overcast
11:53 AM 69.1 °F 61.0 °F 75% 30.04 in 10.0 mi SSE 9.2 mph - N/A   Overcast
12:53 PM 69.1 °F 61.0 °F 75% 30.04 in 10.0 mi SE 11.5 mph - N/A   Overcast
1:14 PM 71.6 °F 62.6 °F 73% 30.03 in 10.0 mi SE 8.1 mph - N/A   Overcast
1:53 PM 71.1 °F 61.0 °F 70% 30.02 in 10.0 mi SSW 10.4 mph - N/A   Overcast
2:21 PM 71.6 °F 60.8 °F 69% 30.02 in 10.0 mi South 12.7 mph - N/A   Overcast
2:53 PM 73.0 °F 62.1 °F 68% 29.99 in 10.0 mi SSW 11.5 mph - N/A   Overcast
3:53 PM 73.9 °F 63.0 °F 68% 29.97 in 10.0 mi ESE 8.1 mph - N/A   Overcast
4:53 PM 75.0 °F 64.0 °F 69% 29.95 in 10.0 mi SSE 10.4 mph - N/A   Overcast
5:53 PM 73.9 °F 64.0 °F 71% 29.94 in 10.0 mi SE 12.7 mph - N/A   Mostly Cloudy
6:53 PM 73.0 °F 63.0 °F 71% 29.94 in 10.0 mi SE 12.7 mph - N/A   Scattered Clouds
7:53 PM 71.1 °F 63.0 °F 75% 29.94 in 10.0 mi SE 8.1 mph - N/A   Overcast
8:53 PM 70.0 °F 63.0 °F 78% 29.94 in 10.0 mi SE 6.9 mph - N/A   Overcast
9:53 PM 70.0 °F 64.0 °F 81% 29.94 in 10.0 mi SSE 9.2 mph - N/A   Overcast
10:53 PM 69.1 °F 64.0 °F 84% 29.94 in 10.0 mi South 10.4 mph - N/A   Mostly Cloudy
11:53 PM 69.1 °F 62.1 °F 78% 29.95 in 10.0 mi South 11.5 mph - N/A   Clear